[[{"header":{"parameterUnit":"m.s-1","parameterCategory":2,"la1":30.2991,"la2":30.254,"lo1":-89.0895,"lo2":-89.0444,"dy":0.0017,"dx":0.0017,"nx":28,"ny":28,"refTime":"2025-06-20T21:00:00:Z","depth":"0","parameterNumber":2,"parameterNumberName":"U-component_of_CURRENTS"},"data":[0,0,0,0,0,0,0,0,0,0,0,0,0,0,0,0,0,0,0,0,0,0,0,0,0,0,0,0,0,0,0,0,0,0,0,0,0,0,0,0,0,0,0,0,0,0,0,0,0,0,0,0,0,0,0,0,0,0,0.1258,0.1259,0,0.1339,0.134,0.134,0.128,0.1277,0.1275,0.1273,0.1059,0.1056,0.1052,0,0,0,0,0,0,0,0,0,0,0,0,0,0.107,0.1074,0.1257,0.1259,0.126,0.1339,0.134,0.134,0.128,0.1277,0.1275,0.1272,0.1061,0.1056,0.1052,0,0,0,0,0,0,0,0,0,0,0,0,0,0.1147,0.1075,0.1257,0.1243,0.1243,0.1339,0.134,0.134,0.128,0.1277,0.1274,0.1271,0.1062,0.1057,0.1051,0.1084,0,0,0.1035,0.1032,0,0,0,0,0,0,0,0,0.1143,0.1153,0.1244,0.1245,0.1245,0.13,0.1196,0.1242,0.1281,0.1261,0.1273,0.1269,0.1118,0.1108,0.1128,0.1074,0.1064,0.1034,0.1031,0.1028,0.1027,0,0,0,0,0,0,0,0.1137,0.115,0.1285,0.1246,0.1247,0.1241,0.1247,0.1205,0.1198,0.1263,0.126,0.1278,0.1115,0.1134,0.1121,0.1061,0.1034,0.1029,0.1026,0.1024,0.1156,0.1163,0,0,0,0,0,0,0.1141,0.1145,0.1282,0.1288,0.119,0.1247,0.1254,0.1282,0.1205,0.1194,0.1281,0.1275,0.1144,0.1128,0.1113,0.1228,0.1028,0.1023,0.102,0.115,0.1158,0.1165,0,0,0,0,0,0,0.1137,0.1153,0.1279,0.1221,0.1237,0.1254,0.1285,0.1285,0.1314,0.1223,0.1204,0.1311,0.1141,0.1121,0.1154,0.1215,0.1021,0.1016,0.1142,0.1152,0.1162,0.1403,0,0,0,0,0,0,0.1131,0.1151,0.1178,0.1222,0.1241,0.1357,0.1289,0.1289,0.1332,0.1325,0.1242,0.1219,0.1137,0.1164,0.1149,0.1204,0.1012,0.1133,0.1146,0.1158,0.1386,0.142,0.1449,0,0,0,0,0,0.1124,0.1177,0.1179,0.1196,0.1276,0.1361,0.1371,0.1366,0.1337,0.1374,0.1358,0.1222,0.1233,0.1166,0.1146,0.12,0.1127,0.1143,0.1157,0.1372,0.1413,0.1448,0,0,0,0,0,0,0.1111,0.1178,0.118,0.125,0.1311,0.1352,0.1391,0.1394,0.1417,0.1402,0.1306,0.1287,0.1342,0.1265,0.1194,0.129,0.1158,0.117,0.1328,0.1366,0.1396,0.1394,0.1007,0,0,0,0,0,0.1126,0.1178,0.1243,0.1302,0.1336,0.1371,0.1406,0.1413,0.1439,0.1445,0.1405,0.1379,0.1396,0.1374,0.1365,0.1406,0.1426,0.1437,0.1468,0.1495,0.149,0.165,0.1694,0.1216,0.1215,0.1215,0,0,0.1136,0.1182,0.121,0.1303,0.1343,0.1412,0.1383,0.1456,0.1511,0.1415,0.1478,0.1484,0.1442,0.1511,0.1524,0.1442,0.166,0.1514,0.1536,0.1516,0.167,0.1716,0.1757,0.1226,0.1224,0.1222,0,0,0.119,0.1231,0.1293,0.1349,0.1431,0.1461,0.1492,0.1561,0.1589,0.1668,0.1643,0.1717,0.1685,0.1716,0.1711,0.1915,0.1835,0.1898,0.2022,0.218,0.222,0.2254,0.2406,0.2452,0.1894,0.1895,0.1895,0,0.1198,0.1287,0.1327,0.1401,0.1458,0.1488,0.1572,0.1619,0.1693,0.1758,0.1703,0.1831,0.1789,0.1923,0.1998,0.1977,0.2053,0.187,0.2219,0.2253,0.2285,0.2431,0.2478,0.1908,0.1907,0.1905,0.1904,0,0.1299,0.1367,0.1416,0.1511,0.1579,0.1662,0.1732,0.1813,0.1844,0.1901,0.2055,0.207,0.2141,0.2163,0.2121,0.2341,0.2324,0.2255,0.2113,0.2347,0.2487,0.2533,0.1928,0.1923,0.1919,0.1915,0,0,0.1332,0.1459,0.1473,0.154,0.1646,0.1721,0.1834,0.1977,0.2073,0.2156,0.2306,0.2395,0.2427,0.2434,0.2436,0.2557,0.2867,0.2502,0.2504,0.2634,0.3244,0.328,0.3331,0.2866,0.2873,0.288,0.3275,0,0.1405,0.1542,0.1592,0.1733,0.1824,0.1892,0.1996,0.2121,0.2211,0.2359,0.2452,0.2567,0.2521,0.2575,0.2714,0.2812,0.2987,0.2766,0.3009,0.3017,0.3006,0.3385,0.3376,0.3731,0.3318,0.3325,0.3331,0,0.1504,0.1585,0.1723,0.1871,0.1917,0.1993,0.2187,0.2283,0.2479,0.2553,0.271,0.2763,0.2977,0.288,0.3218,0.3083,0.32,0.3271,0.3287,0.3251,0.3137,0.342,0.3827,0.3694,0.3399,0.3393,0.3388,0,0.1547,0.1689,0.1801,0.1851,0.2009,0.2095,0.2179,0.2357,0.2467,0.2684,0.2787,0.302,0.3134,0.3335,0.3476,0.3384,0.3831,0.3714,0.388,0.3881,0.3882,0.3871,0.4163,0.4006,0.4005,0.4004,0.4003,0,0.164,0.1739,0.1822,0.1899,0.2034,0.213,0.2293,0.241,0.259,0.274,0.2884,0.3044,0.3254,0.3496,0.3615,0.3924,0.3971,0.4001,0.4029,0.3974,0.3968,0.3844,0.3759,0.4019,0.4015,0.4012,0.401,0,0.172,0.1766,0.1904,0.2035,0.2067,0.2171,0.2321,0.2438,0.2597,0.2799,0.2875,0.3144,0.3467,0.3689,0.4025,0.4111,0.4308,0.4452,0.4373,0.4385,0.4379,0.4308,0.4421,0.4344,0.475,0.4754,0.4758,0,0.1794,0.1862,0.1972,0.2014,0.2076,0.22,0.2277,0.2432,0.2542,0.285,0.2952,0.3311,0.3549,0.4087,0.4353,0.4698,0.4488,0.4846,0.4667,0.4486,0.4427,0.4118,0.4019,0.4798,0.4801,0.4804,0.4806,0,0.1919,0.1931,0.2012,0.2071,0.214,0.2225,0.2337,0.2419,0.261,0.2787,0.3046,0.3264,0.3808,0.4163,0.4612,0.4817,0.466,0.4911,0.4776,0.458,0.4217,0.4116,0.4397,0.483,0.4828,0.4826,0.4825,0.4824,0.1976,0.2019,0.2055,0.2119,0.2172,0.2215,0.2265,0.2391,0.2548,0.2785,0.3022,0.3329,0.3896,0.4545,0.4708,0.5022,0.4851,0.4979,0.4947,0.4673,0.4489,0.4827,0.5224,0.5224,0.5224,0.5224,0.5223,0,0.2001,0.2019,0.2088,0.212,0.2138,0.2177,0.227,0.2311,0.244,0.2733,0.2958,0.3526,0.4024,0.4483,0.5046,0.5029,0.4801,0.4967,0.4536,0.4468,0.4879,0.4764,0.5016,0.5016,0.5016,0.5016,0.5016,0.5016,0.2003,0.2027,0.2044,0.2045,0.2063,0.205,0.2074,0.2169,0.2347,0.2671,0.2968,0.3253,0.3904,0.4668,0.4969,0.4956,0.4587,0.4493,0.4369,0.4654,0.4647,0.464,0.4511,0.4705,0.4705,0.3797,0.3791,0.3786]},{"header":{"parameterUnit":"m.s-1","parameterCategory":2,"la1":30.2991,"la2":30.254,"lo1":-89.0895,"lo2":-89.0444,"dy":0.0017,"dx":0.0017,"nx":28,"ny":28,"refTime":"2025-06-20T21:00:00:Z","depth":"0","parameterNumber":3,"parameterNumberName":"V-component_of_CURRENTS"},"data":[0,0,0,0,0,0,0,0,0,0,0,0,0,0,0,0,0,0,0,0,0,0,0,0,0,0,0,0,0,0,0,0,0,0,0,0,0,0,0,0,0,0,0,0,0,0,0,0,0,0,0,0,0,0,0,0,0,0,-0.0055,-0.0055,0,-0.0015,-0.0015,-0.0014,-0.0013,-0.0014,-0.0014,-0.0015,-0.0,0.0001,0.0002,0,0,0,0,0,0,0,0,0,0,0,0,0,-0.0024,-0.0025,-0.0055,-0.0055,-0.0054,-0.0015,-0.0015,-0.0014,-0.0013,-0.0014,-0.0015,-0.0015,-0.0001,0.0,0.0002,0,0,0,0,0,0,0,0,0,0,0,0,0,-0.0014,-0.0025,-0.0055,-0.0051,-0.005,-0.0016,-0.0015,-0.0014,-0.0013,-0.0014,-0.0015,-0.0016,-0.0001,0.0,0.0002,0.0033,0,0,0.0007,0.0007,0,0,0,0,0,0,0,0,-0.0015,-0.0015,-0.0052,-0.0051,-0.0051,-0.0022,0.0002,-0.0,-0.0012,-0.0025,-0.0015,-0.0016,-0.0011,-0.0009,0.0005,0.0033,0.0034,0.0007,0.0008,0.0008,0.0009,0,0,0,0,0,0,0,-0.0016,-0.0016,-0.0037,-0.0052,-0.0051,-0.0015,-0.0015,0.0002,-0.0011,-0.0024,-0.0024,-0.0023,-0.001,0.0004,0.0005,0.0034,0.0007,0.0008,0.0009,0.001,0.0016,0.0016,0,0,0,0,0,0,-0.003,-0.0017,-0.0038,-0.0036,-0.0037,-0.0015,-0.0016,-0.0028,-0.0011,-0.0009,-0.0022,-0.0023,0.0001,0.0003,0.0006,0.0047,0.0008,0.001,0.0011,0.0017,0.0016,0.0015,0,0,0,0,0,0,-0.003,-0.0033,-0.004,-0.0026,-0.0025,-0.0016,-0.0029,-0.0027,-0.0018,-0.001,-0.0009,-0.0017,0.0001,0.0003,0.0005,0.0047,0.0011,0.0012,0.0018,0.0017,0.0016,0.0127,0,0,0,0,0,0,-0.0029,-0.0033,-0.0038,-0.0028,-0.0027,-0.0009,-0.0028,-0.0026,-0.0017,-0.0018,-0.0005,-0.0004,-0.0,0.0003,0.0007,0.0048,0.0013,0.0019,0.0018,0.0016,0.0124,0.013,0.0134,0,0,0,0,0,-0.0028,-0.002,-0.0039,-0.0041,-0.0038,-0.0008,-0.0003,0.0003,-0.0016,0.0003,-0.0012,-0.0005,-0.0004,0.0004,0.0009,0.0052,0.002,0.0018,0.0016,0.0122,0.0128,0.0134,0,0,0,0,0,0,0.0008,-0.002,-0.004,-0.0039,-0.0026,-0.0009,0.001,0.0003,0.001,0.0001,-0.0003,-0.0003,0.0009,-0.0001,0.0008,0.0038,0.0005,0.0004,0.0083,0.009,0.0095,0.0183,0.0014,0,0,0,0,0,0.0006,-0.0008,-0.0015,-0.001,-0.0008,-0.0004,0.0008,0.0009,0.0013,0.0015,0.0019,0.0009,0.0008,0.0022,0.0015,0.0049,0.0057,0.0069,0.0074,0.0079,0.0148,0.0154,0.0168,0.001,0.001,0.001,0,0,0.0026,0.0005,0.0002,-0.0005,0.0001,0.0046,0.0002,0.0024,0.0069,0.0016,0.0066,0.0027,0.0011,0.004,0.0046,0.0043,0.0119,0.0077,0.0083,0.015,0.0154,0.0171,0.0185,0.0009,0.0009,0.0009,0,0,0.0081,0.0035,0.0054,0.0068,0.0071,0.0077,0.0081,0.0093,0.0101,0.013,0.0091,0.0084,0.0089,0.0102,0.0104,0.0132,0.0132,0.0104,0.0236,0.0239,0.0254,0.0268,0.0279,0.0294,0.0125,0.0125,0.0126,0,0.0116,0.013,0.0074,0.0112,0.0145,0.0096,0.0163,0.0169,0.0183,0.0217,0.0155,0.0175,0.0137,0.0209,0.0205,0.0158,0.0155,0.0223,0.0254,0.0267,0.028,0.0288,0.0303,0.013,0.013,0.0129,0.0129,0,0.0199,0.0217,0.0237,0.026,0.0284,0.0331,0.0329,0.0355,0.0337,0.0355,0.0392,0.0331,0.0366,0.0319,0.0278,0.0349,0.0315,0.0248,0.0258,0.0304,0.0307,0.032,0.0138,0.0136,0.0134,0.0133,0,0,0.0291,0.0295,0.031,0.0356,0.037,0.0414,0.0473,0.0543,0.062,0.0586,0.0693,0.0638,0.0607,0.0605,0.0534,0.053,0.0571,0.0442,0.0439,0.0492,0.0595,0.0554,0.0563,0.0507,0.051,0.0513,0.0558,0,0.0395,0.0482,0.0463,0.0589,0.0647,0.0635,0.0714,0.0761,0.0773,0.0854,0.0799,0.0845,0.0715,0.0724,0.0705,0.0605,0.0614,0.0568,0.0513,0.0513,0.0502,0.0581,0.059,0.063,0.057,0.0572,0.0574,0,0.0511,0.0551,0.0669,0.0767,0.0797,0.0871,0.0999,0.1061,0.1134,0.1144,0.1178,0.1128,0.1141,0.0989,0.0923,0.0897,0.0785,0.0689,0.0686,0.0641,0.0498,0.0573,0.0656,0.0367,0.0593,0.0592,0.059,0,0.0621,0.0719,0.0814,0.0848,0.0937,0.1018,0.1081,0.1167,0.1247,0.1338,0.1398,0.1394,0.1389,0.1274,0.107,0.1007,0.0976,0.0855,0.0729,0.0723,0.0725,0.0715,0.0569,0.0837,0.0837,0.0837,0.0837,0,0.0749,0.0841,0.0878,0.0943,0.1101,0.1133,0.1308,0.1368,0.1479,0.1599,0.1559,0.1638,0.1454,0.1394,0.1195,0.1029,0.108,0.0813,0.0755,0.0755,0.0748,0.0489,0.0299,0.0839,0.0838,0.0838,0.0838,0,0.0856,0.0873,0.0998,0.1104,0.1149,0.1266,0.1423,0.155,0.1632,0.1785,0.1823,0.1842,0.1774,0.1584,0.1398,0.1194,0.0876,0.0945,0.0966,0.091,0.0503,0.032,0.0243,0.0087,0.0842,0.0842,0.0842,0,0.0911,0.0979,0.11,0.1171,0.1225,0.138,0.1494,0.1615,0.1736,0.1901,0.1987,0.1996,0.2014,0.1767,0.1444,0.1172,0.0884,0.0958,0.0835,0.0541,0.0294,0.0226,0.0093,0.0869,0.0869,0.0869,0.0868,0,0.1021,0.1053,0.1135,0.1267,0.1392,0.1543,0.1705,0.1822,0.1968,0.2091,0.224,0.2282,0.2094,0.1855,0.1487,0.1259,0.0755,0.0945,0.0645,0.0338,0.0258,0.0059,0.0766,0.0868,0.0868,0.0868,0.0868,0.0868,0.1084,0.1151,0.1234,0.137,0.1506,0.1677,0.1806,0.1968,0.2157,0.2353,0.2406,0.2526,0.2213,0.174,0.1357,0.0725,0.0711,0.0499,0.0317,0.0291,0.01,0.0814,0.083,0.0829,0.0829,0.0829,0.0829,0,0.1136,0.1202,0.133,0.1482,0.1629,0.1695,0.1923,0.2048,0.2241,0.2473,0.2608,0.2648,0.211,0.159,0.0786,0.0225,0.0021,-0.0099,-0.022,-0.0322,0.0331,0.0284,0.0178,0.0178,0.0178,0.0178,0.0179,0.0179,0.1161,0.1261,0.1323,0.1541,0.1658,0.1852,0.1974,0.2159,0.2357,0.2664,0.2868,0.3036,0.2767,0.1155,-0.0009,-0.0342,-0.0814,-0.0862,-0.1119,-0.0737,-0.0695,-0.0656,-0.0743,-0.1064,-0.1065,-0.166,-0.1667,-0.1672]}],[{"header":{"parameterUnit":"m.s-1","parameterCategory":2,"la1":30.2991,"la2":30.254,"lo1":-89.0895,"lo2":-89.0444,"dy":0.0017,"dx":0.0017,"nx":28,"ny":28,"refTime":"2025-06-20T21:00:00:Z","depth":"2","parameterNumber":2,"parameterNumberName":"U-component_of_CURRENTS"},"data":[0,0,0,0,0,0,0,0,0,0,0,0,0,0,0,0,0,0,0,0,0,0,0,0,0,0,0,0,0,0,0,0,0,0,0,0,0,0,0,0,0,0,0,0,0,0,0,0,0,0,0,0,0,0,0,0,0,0,0.1551,0.1551,0,0.157,0.157,0.157,0.1565,0.1564,0.1564,0.1563,0.1684,0.1688,0.1691,0,0,0,0,0,0,0,0,0,0,0,0,0,0.1505,0.1506,0.1551,0.1551,0.1552,0.157,0.157,0.157,0.1565,0.1564,0.1564,0.1563,0.1683,0.1687,0.1692,0,0,0,0,0,0,0,0,0,0,0,0,0,0.1525,0.1506,0.1551,0.155,0.155,0.157,0.157,0.157,0.1565,0.1564,0.1563,0.1563,0.1682,0.1687,0.1692,0.1741,0,0,0.1709,0.1712,0,0,0,0,0,0,0,0,0.1524,0.1527,0.155,0.155,0.155,0.1563,0.1598,0.1632,0.1565,0.156,0.1563,0.1562,0.1653,0.1661,0.1666,0.1746,0.1752,0.171,0.1713,0.1715,0.1717,0,0,0,0,0,0,0,0.1523,0.1526,0.156,0.155,0.1551,0.1546,0.1549,0.1604,0.1613,0.1561,0.156,0.1561,0.1654,0.1661,0.1669,0.1753,0.171,0.1714,0.1718,0.172,0.1975,0.1979,0,0,0,0,0,0,0.152,0.1525,0.1559,0.156,0.1534,0.1548,0.155,0.1561,0.1611,0.1616,0.1561,0.156,0.1652,0.1663,0.1674,0.1819,0.1715,0.1721,0.1724,0.1972,0.1976,0.198,0,0,0,0,0,0,0.1519,0.1523,0.1558,0.1541,0.1545,0.1549,0.1561,0.1561,0.1581,0.161,0.1617,0.1582,0.1651,0.1666,0.1751,0.182,0.1723,0.1728,0.1968,0.1973,0.1978,0.2056,0,0,0,0,0,0,0.1518,0.1523,0.1536,0.1542,0.1546,0.1587,0.1562,0.1562,0.1581,0.1581,0.163,0.1639,0.1652,0.1743,0.1757,0.1826,0.1732,0.1963,0.197,0.1976,0.2049,0.2063,0.2076,0,0,0,0,0,0.1516,0.1534,0.1536,0.1541,0.1562,0.1588,0.1592,0.1591,0.1583,0.1604,0.1644,0.1638,0.1794,0.175,0.1765,0.1838,0.196,0.1968,0.1976,0.2043,0.2061,0.2075,0,0,0,0,0,0,0.1516,0.1535,0.1538,0.156,0.1581,0.1587,0.1604,0.1605,0.165,0.1659,0.1679,0.1693,0.1796,0.181,0.176,0.1934,0.1879,0.189,0.1925,0.1942,0.1955,0.1955,0.1737,0,0,0,0,0,0.1523,0.1543,0.1562,0.158,0.1595,0.1605,0.1617,0.1624,0.1657,0.1674,0.1713,0.1769,0.184,0.1881,0.1938,0.2031,0.204,0.2091,0.2105,0.2115,0.2129,0.2197,0.2217,0.2006,0.2006,0.2005,0,0,0.1523,0.1539,0.1547,0.1582,0.1598,0.164,0.1612,0.1645,0.1693,0.1686,0.1775,0.1818,0.1875,0.1979,0.2028,0.2,0.2183,0.2125,0.2134,0.2142,0.2208,0.2228,0.2246,0.2011,0.201,0.2009,0,0,0.1541,0.1557,0.1586,0.1616,0.1653,0.167,0.1686,0.1721,0.1752,0.1838,0.1855,0.1938,0.2035,0.2093,0.2134,0.2259,0.2249,0.2283,0.2354,0.2421,0.2438,0.2453,0.249,0.2508,0.2291,0.2291,0.2291,0,0.1538,0.1584,0.1598,0.1644,0.1674,0.1691,0.1739,0.1783,0.1845,0.1889,0.1883,0.205,0.2095,0.2228,0.2275,0.229,0.231,0.2283,0.2436,0.2451,0.2465,0.2499,0.2517,0.2295,0.2295,0.2294,0.2294,0,0.1586,0.1629,0.1652,0.172,0.1758,0.1801,0.186,0.1919,0.196,0.2002,0.2136,0.2201,0.2297,0.2336,0.2348,0.2487,0.2462,0.2439,0.2385,0.2491,0.252,0.2538,0.2302,0.2301,0.2299,0.2298,0,0,0.1558,0.1663,0.1673,0.1716,0.1802,0.1834,0.1938,0.2028,0.2093,0.2183,0.2274,0.2417,0.2441,0.249,0.2523,0.2589,0.271,0.2564,0.2565,0.2583,0.2842,0.2697,0.2702,0.2708,0.2712,0.2715,0.282,0,0.159,0.168,0.1734,0.1825,0.1874,0.194,0.2026,0.2115,0.2194,0.2291,0.2386,0.249,0.2504,0.2557,0.2635,0.2689,0.2762,0.2682,0.2753,0.2755,0.2599,0.272,0.254,0.2608,0.2837,0.284,0.2842,0,0.1621,0.168,0.1766,0.1877,0.1905,0.1965,0.2094,0.2176,0.2319,0.2388,0.2511,0.2569,0.2715,0.2688,0.2856,0.2803,0.2844,0.2872,0.2876,0.2725,0.2644,0.2543,0.2631,0.2871,0.2869,0.2867,0.2865,0,0.158,0.1703,0.1767,0.1804,0.1931,0.1989,0.2064,0.2201,0.2279,0.2448,0.252,0.268,0.2766,0.2858,0.2937,0.2909,0.3079,0.3039,0.2951,0.294,0.2793,0.2761,0.3161,0.3161,0.3161,0.316,0.316,0,0.1586,0.1634,0.1751,0.1781,0.1863,0.1965,0.2063,0.217,0.2316,0.2412,0.256,0.2664,0.2815,0.2921,0.2974,0.3018,0.3119,0.299,0.2972,0.2813,0.2784,0.301,0.2991,0.3164,0.3163,0.3163,0.3162,0,0.1518,0.1597,0.1664,0.1796,0.1839,0.1891,0.2039,0.2113,0.227,0.2401,0.2462,0.2678,0.283,0.2943,0.3091,0.305,0.3108,0.3095,0.2881,0.2834,0.2914,0.2899,0.3013,0.3009,0.3005,0.3003,0.3,0,0.1487,0.1517,0.1638,0.1678,0.1734,0.183,0.1898,0.2068,0.2153,0.2399,0.2458,0.266,0.2783,0.2935,0.294,0.2996,0.3082,0.2809,0.2718,0.2936,0.2907,0.2897,0.2886,0.257,0.2564,0.256,0.2556,0,0.1422,0.146,0.1517,0.1604,0.1674,0.1755,0.1873,0.1932,0.2134,0.2256,0.2451,0.2568,0.2719,0.2713,0.2747,0.2738,0.2777,0.2708,0.3047,0.2603,0.2518,0.2489,0.2494,0.2515,0.2519,0.2522,0.2524,0.2526,0.1362,0.1383,0.1467,0.1543,0.1618,0.1701,0.175,0.188,0.2005,0.2156,0.2288,0.2381,0.2473,0.2431,0.2407,0.238,0.2538,0.244,0.2456,0.2477,0.2375,0.2285,0.2219,0.2222,0.2224,0.2225,0.2227,0,0.1312,0.1361,0.1416,0.1512,0.1565,0.1643,0.175,0.1782,0.1898,0.199,0.2086,0.1948,0.1977,0.2098,0.2006,0.1982,0.1973,0.191,0.1923,0.1965,0.2003,0.1877,0.159,0.1588,0.1586,0.1584,0,0,0.1295,0.1332,0.1372,0.1453,0.1523,0.1587,0.164,0.1683,0.1739,0.171,0.1711,0.1796,0.1988,0.1731,0.1734,0.1671,0.1788,0.1594,0.2111,0.2167,0.2201,0.232,0.2175,0,0,0,0,0]},{"header":{"parameterUnit":"m.s-1","parameterCategory":2,"la1":30.2991,"la2":30.254,"lo1":-89.0895,"lo2":-89.0444,"dy":0.0017,"dx":0.0017,"nx":28,"ny":28,"refTime":"2025-06-20T21:00:00:Z","depth":"2","parameterNumber":3,"parameterNumberName":"V-component_of_CURRENTS"},"data":[0,0,0,0,0,0,0,0,0,0,0,0,0,0,0,0,0,0,0,0,0,0,0,0,0,0,0,0,0,0,0,0,0,0,0,0,0,0,0,0,0,0,0,0,0,0,0,0,0,0,0,0,0,0,0,0,0,0,-0.0606,-0.0605,0,-0.0494,-0.0493,-0.0492,-0.042,-0.042,-0.042,-0.0419,-0.0369,-0.0368,-0.0367,0,0,0,0,0,0,0,0,0,0,0,0,0,-0.07,-0.0699,-0.0606,-0.0605,-0.0604,-0.0494,-0.0493,-0.0491,-0.042,-0.042,-0.0419,-0.0419,-0.037,-0.0369,-0.0367,0,0,0,0,0,0,0,0,0,0,0,0,0,-0.063,-0.0699,-0.0607,-0.0556,-0.055,-0.0495,-0.0493,-0.0491,-0.042,-0.042,-0.0419,-0.0419,-0.037,-0.0369,-0.0367,-0.0367,0,0,-0.0362,-0.0362,0,0,0,0,0,0,0,0,-0.0634,-0.0627,-0.0565,-0.0559,-0.0553,-0.0472,-0.0507,-0.0453,-0.042,-0.0469,-0.0419,-0.0419,-0.0411,-0.0406,-0.0383,-0.0365,-0.0363,-0.0362,-0.0361,-0.0361,-0.036,0,0,0,0,0,0,0,-0.0639,-0.0631,-0.0561,-0.0563,-0.0556,-0.0519,-0.0509,-0.0496,-0.0444,-0.0464,-0.0459,-0.0449,-0.0408,-0.0385,-0.0382,-0.0362,-0.0362,-0.0361,-0.036,-0.0359,-0.0315,-0.0315,0,0,0,0,0,0,-0.0659,-0.0636,-0.0564,-0.0558,-0.0594,-0.0518,-0.0506,-0.0497,-0.0442,-0.0433,-0.0449,-0.0446,-0.0388,-0.0384,-0.038,-0.0328,-0.0361,-0.0359,-0.0358,-0.0315,-0.0315,-0.0314,0,0,0,0,0,0,-0.0661,-0.0654,-0.0569,-0.0595,-0.0582,-0.0517,-0.0507,-0.0495,-0.046,-0.043,-0.0422,-0.0425,-0.0387,-0.0382,-0.0354,-0.0328,-0.0359,-0.0357,-0.0315,-0.0315,-0.0315,-0.0257,0,0,0,0,0,0,-0.0664,-0.0655,-0.0644,-0.0596,-0.0581,-0.0527,-0.0507,-0.0494,-0.0456,-0.045,-0.0408,-0.0403,-0.0386,-0.0356,-0.0352,-0.0326,-0.0356,-0.0316,-0.0315,-0.0315,-0.0259,-0.0255,-0.0251,0,0,0,0,0,-0.0668,-0.0649,-0.0644,-0.0635,-0.0571,-0.0527,-0.0515,-0.0467,-0.0456,-0.0435,-0.0407,-0.0404,-0.0351,-0.0354,-0.035,-0.0323,-0.0316,-0.0315,-0.0315,-0.0261,-0.0256,-0.0251,0,0,0,0,0,0,-0.0663,-0.0639,-0.0632,-0.0601,-0.0568,-0.0515,-0.0485,-0.0465,-0.0424,-0.0417,-0.0395,-0.0388,-0.0355,-0.0356,-0.0361,-0.0313,-0.0335,-0.0334,-0.0296,-0.0291,-0.0287,-0.0273,-0.0355,0,0,0,0,0,-0.0666,-0.065,-0.0621,-0.059,-0.058,-0.0536,-0.0509,-0.0482,-0.0445,-0.0425,-0.0394,-0.0371,-0.0351,-0.0334,-0.0318,-0.029,-0.0322,-0.0275,-0.027,-0.0267,-0.0255,-0.0298,-0.0297,-0.0313,-0.0313,-0.0313,0,0,-0.0647,-0.0636,-0.062,-0.059,-0.0559,-0.0519,-0.0517,-0.0474,-0.0427,-0.043,-0.0357,-0.0355,-0.0343,-0.0304,-0.029,-0.0298,-0.0281,-0.0266,-0.0262,-0.0252,-0.0297,-0.0296,-0.0294,-0.0312,-0.0312,-0.0312,0,0,-0.0605,-0.0604,-0.0577,-0.0554,-0.0519,-0.0497,-0.0488,-0.0438,-0.0405,-0.0354,-0.0344,-0.0329,-0.0286,-0.0269,-0.0258,-0.0228,-0.026,-0.0226,-0.0183,-0.0225,-0.0224,-0.0224,-0.0268,-0.0272,-0.0219,-0.0219,-0.0219,0,-0.0576,-0.0547,-0.0557,-0.0524,-0.0491,-0.0488,-0.0439,-0.0407,-0.0347,-0.0323,-0.0325,-0.0272,-0.0265,-0.0226,-0.0207,-0.0215,-0.0249,-0.0198,-0.0219,-0.0219,-0.022,-0.0265,-0.027,-0.0217,-0.0217,-0.0217,-0.0217,0,-0.0519,-0.0487,-0.0467,-0.043,-0.0403,-0.036,-0.0334,-0.0299,-0.0275,-0.0247,-0.0207,-0.0203,-0.0173,-0.0174,-0.0172,-0.0163,-0.0191,-0.0213,-0.023,-0.0214,-0.0264,-0.027,-0.0212,-0.0213,-0.0214,-0.0215,0,0,-0.0458,-0.043,-0.0416,-0.0388,-0.035,-0.0318,-0.0261,-0.021,-0.0169,-0.0143,-0.0093,-0.0072,-0.0088,-0.008,-0.0092,-0.0121,-0.0154,-0.0158,-0.0162,-0.0197,-0.0253,-0.032,-0.0334,-0.0184,-0.0184,-0.0185,-0.0288,0,-0.0395,-0.0329,-0.0327,-0.0243,-0.0208,-0.0196,-0.014,-0.0102,-0.0078,-0.0036,-0.0053,-0.0017,-0.0048,-0.0035,-0.0069,-0.0125,-0.0167,-0.0124,-0.0266,-0.027,-0.0328,-0.0341,-0.0297,-0.039,-0.0295,-0.0296,-0.0297,0,-0.0334,-0.0299,-0.0219,-0.0162,-0.0143,-0.0092,-0.0024,0.0025,0.0058,0.0075,0.0082,0.0066,0.0054,0.0009,-0.009,-0.0063,-0.0149,-0.0211,-0.0218,-0.0301,-0.0348,-0.039,-0.0406,-0.0308,-0.0307,-0.0306,-0.0305,0,-0.0298,-0.022,-0.0158,-0.0133,-0.007,-0.0023,0.0018,0.0064,0.0117,0.014,0.0168,0.0132,0.0136,0.0018,-0.0098,-0.0097,-0.0235,-0.0256,-0.0403,-0.0409,-0.0409,-0.0415,-0.035,-0.035,-0.035,-0.0349,-0.0349,0,-0.0244,-0.0186,-0.0133,-0.0096,-0.0003,0.0018,0.0111,0.0146,0.0199,0.0265,0.0226,0.0261,0.0138,0.0053,-0.0086,-0.0263,-0.0233,-0.04,-0.0442,-0.039,-0.0393,-0.0347,-0.0345,-0.0353,-0.0352,-0.0352,-0.0351,0,-0.0211,-0.018,-0.0101,-0.0022,0.0014,0.0079,0.0184,0.0247,0.0281,0.0363,0.0377,0.0366,0.0249,0.0087,-0.0095,-0.023,-0.0409,-0.0486,-0.0419,-0.0452,-0.0559,-0.0553,-0.0659,-0.0662,-0.0665,-0.0667,-0.0669,0,-0.0187,-0.0147,-0.0044,0.002,0.0067,0.0161,0.0236,0.0293,0.0366,0.043,0.048,0.0407,0.0357,0.0053,-0.0192,-0.0472,-0.048,-0.0614,-0.0611,-0.0561,-0.0591,-0.0581,-0.0571,-0.0588,-0.0589,-0.059,-0.059,0,-0.0129,-0.0095,-0.0028,0.0097,0.0189,0.0286,0.0396,0.0461,0.053,0.0585,0.0653,0.0609,0.0337,0.0083,-0.0304,-0.0478,-0.0569,-0.0645,-0.0606,-0.0523,-0.0504,-0.0531,-0.0522,-0.0598,-0.0598,-0.0597,-0.0597,-0.0596,-0.0069,-0.0013,0.0081,0.02,0.0306,0.0428,0.052,0.062,0.0726,0.0812,0.0745,0.0687,0.04,-0.0088,-0.0376,-0.0648,-0.0662,-0.0747,-0.0739,-0.0731,-0.0711,-0.0699,-0.0826,-0.0826,-0.0827,-0.0827,-0.0828,0,0.0019,0.0085,0.019,0.0337,0.0458,0.0502,0.0651,0.0734,0.087,0.0882,0.0889,0.0603,0.0276,-0.0028,-0.0446,-0.0734,-0.0701,-0.0798,-0.0688,-0.0681,-0.0674,-0.0646,-0.0747,-0.0747,-0.0747,-0.0747,0,0,0.0079,0.0187,0.023,0.0448,0.0561,0.0734,0.0824,0.0934,0.0985,0.0986,0.0939,0.076,0.0372,0.0088,-0.0287,-0.0503,-0.0513,-0.0536,-0.058,-0.04,-0.0389,-0.0637,-0.0586,0,0,0,0,0]}],[{"header":{"parameterUnit":"m.s-1","parameterCategory":2,"la1":30.2991,"la2":30.254,"lo1":-89.0895,"lo2":-89.0444,"dy":0.0017,"dx":0.0017,"nx":28,"ny":28,"refTime":"2025-06-20T21:00:00:Z","depth":"4","parameterNumber":2,"parameterNumberName":"U-component_of_CURRENTS"},"data":[0,0,0,0,0,0,0,0,0,0,0,0,0,0,0,0,0,0,0,0,0,0,0,0,0,0,0,0,0,0,0,0,0,0,0,0,0,0,0,0,0,0,0,0,0,0,0,0,0,0,0,0,0,0,0,0,0,0,0.0822,0.0822,0,0.0844,0.0844,0.0844,0.0882,0.0882,0.0883,0.0884,0.0942,0.0943,0.0944,0,0,0,0,0,0,0,0,0,0,0,0,0,0.0802,0.0802,0.0822,0.0822,0.0822,0.0844,0.0844,0.0844,0.0881,0.0882,0.0883,0.0884,0.0942,0.0943,0.0944,0,0,0,0,0,0,0,0,0,0,0,0,0,0.0816,0.0802,0.0822,0.0844,0.0846,0.0844,0.0844,0.0844,0.0881,0.0882,0.0883,0.0884,0.0942,0.0943,0.0944,0.0932,0,0,0.0949,0.0949,0,0,0,0,0,0,0,0,0.0815,0.0817,0.084,0.0842,0.0844,0.0861,0.0859,0.0876,0.0881,0.0868,0.0884,0.0885,0.0918,0.0921,0.0923,0.0935,0.0937,0.0949,0.095,0.095,0.0951,0,0,0,0,0,0,0,0.0814,0.0816,0.0831,0.084,0.0843,0.0849,0.0852,0.0862,0.0887,0.0869,0.0872,0.0874,0.0919,0.0921,0.0924,0.0938,0.0949,0.095,0.0951,0.0951,0.102,0.1021,0,0,0,0,0,0,0.0811,0.0815,0.083,0.0831,0.0832,0.0848,0.0852,0.0855,0.0887,0.0892,0.0873,0.0875,0.0918,0.0923,0.0927,0.0986,0.095,0.0952,0.0952,0.1019,0.102,0.1021,0,0,0,0,0,0,0.081,0.0812,0.0829,0.0824,0.0826,0.0847,0.085,0.0855,0.0886,0.0889,0.0896,0.0904,0.0919,0.0925,0.0969,0.0986,0.0952,0.0953,0.1017,0.1019,0.102,0.1058,0,0,0,0,0,0,0.081,0.0812,0.0824,0.0823,0.0826,0.085,0.0849,0.0854,0.0884,0.0888,0.0917,0.0922,0.092,0.0967,0.097,0.0987,0.0954,0.1016,0.1018,0.102,0.1056,0.1061,0.1065,0,0,0,0,0,0.0809,0.0817,0.0825,0.0827,0.0839,0.0851,0.0854,0.0872,0.0885,0.0903,0.0929,0.0922,0.098,0.0969,0.0973,0.099,0.1015,0.1018,0.102,0.1053,0.106,0.1065,0,0,0,0,0,0,0.0812,0.0821,0.083,0.084,0.0856,0.0858,0.0876,0.0888,0.092,0.0934,0.094,0.0947,0.0984,0.0987,0.0974,0.1015,0.0994,0.0998,0.1019,0.1025,0.1029,0.105,0.0956,0,0,0,0,0,0.0817,0.0832,0.0839,0.0852,0.0862,0.0875,0.0887,0.09,0.092,0.0937,0.096,0.098,0.0989,0.101,0.1018,0.105,0.1049,0.1062,0.1067,0.1071,0.109,0.1095,0.1101,0.1028,0.1028,0.1028,0,0,0.0821,0.083,0.0838,0.0855,0.0869,0.0886,0.0887,0.0912,0.0936,0.0937,0.0991,0.0997,0.1,0.103,0.1047,0.1042,0.1092,0.1073,0.1077,0.1095,0.1098,0.1105,0.1111,0.103,0.1029,0.1029,0,0,0.0826,0.0847,0.0858,0.0877,0.0903,0.0912,0.0927,0.095,0.0976,0.1021,0.1018,0.1049,0.1077,0.1082,0.1085,0.1125,0.111,0.112,0.1171,0.1174,0.1181,0.1186,0.1194,0.12,0.1131,0.1131,0.1131,0,0.0833,0.0849,0.0865,0.0882,0.0909,0.0928,0.0955,0.0972,0.1012,0.1035,0.105,0.1092,0.1103,0.1123,0.1143,0.1137,0.1136,0.1147,0.118,0.1186,0.1191,0.1198,0.1204,0.1133,0.1132,0.1132,0.1132,0,0.084,0.0867,0.0879,0.0911,0.0941,0.097,0.0998,0.103,0.1068,0.1088,0.1136,0.1154,0.1184,0.1182,0.1184,0.1216,0.1203,0.1177,0.1165,0.12,0.1206,0.1211,0.1136,0.1135,0.1134,0.1134,0,0,0.0818,0.0874,0.0881,0.0903,0.0968,0.098,0.1033,0.1075,0.1105,0.1152,0.1199,0.123,0.1249,0.1255,0.1251,0.1267,0.1305,0.1251,0.125,0.1259,0.1319,0.1291,0.1294,0.128,0.1281,0.1282,0.1309,0,0.0825,0.0863,0.09,0.0945,0.097,0.1019,0.1069,0.1112,0.1156,0.1203,0.1229,0.1274,0.127,0.1297,0.1311,0.1303,0.1322,0.1301,0.1286,0.1286,0.1255,0.13,0.1286,0.1313,0.1314,0.1315,0.1316,0,0.0818,0.085,0.0903,0.0968,0.0987,0.1023,0.1101,0.1149,0.1214,0.1254,0.1301,0.1323,0.1371,0.1359,0.138,0.1365,0.1362,0.1352,0.1351,0.132,0.1269,0.1271,0.1325,0.1325,0.1324,0.1323,0.1323,0,0.0786,0.0845,0.0893,0.0918,0.0999,0.1037,0.1091,0.117,0.1221,0.1297,0.134,0.138,0.1424,0.1419,0.1433,0.1407,0.1446,0.1396,0.1366,0.1363,0.1361,0.1355,0.1417,0.1417,0.1417,0.1417,0.1417,0,0.0774,0.0801,0.0879,0.09,0.0959,0.1033,0.1105,0.1158,0.1254,0.131,0.1373,0.1413,0.1445,0.1471,0.1454,0.1443,0.1465,0.1395,0.1375,0.1376,0.1371,0.1365,0.1358,0.1418,0.1418,0.1417,0.1417,0,0.0723,0.0782,0.0823,0.0911,0.0946,0.0991,0.1113,0.1155,0.126,0.1335,0.1372,0.1458,0.1499,0.1519,0.1526,0.1479,0.1462,0.1452,0.1482,0.1458,0.1366,0.1362,0.1404,0.1403,0.1403,0.1403,0.1402,0,0.07,0.0721,0.0813,0.0849,0.0893,0.0974,0.1036,0.1152,0.1196,0.1343,0.1362,0.1463,0.1504,0.1491,0.1517,0.1503,0.1483,0.1465,0.1398,0.1393,0.1369,0.1365,0.1361,0.1401,0.1401,0.1401,0.1401,0,0.0652,0.0693,0.0729,0.0806,0.0868,0.0924,0.1011,0.104,0.1173,0.1268,0.1336,0.1384,0.144,0.1458,0.1486,0.1459,0.1466,0.1459,0.1458,0.1394,0.139,0.1365,0.1362,0.1399,0.1399,0.14,0.14,0,0.0615,0.0629,0.0693,0.0749,0.0825,0.0863,0.0911,0.0977,0.105,0.1207,0.1226,0.1333,0.1424,0.1438,0.1446,0.1448,0.1409,0.1342,0.1346,0.1349,0.1322,0.1307,0.1292,0,0,0,0,0,0.0577,0.0592,0.0635,0.0696,0.0762,0.0807,0.0894,0.0942,0.1059,0.1083,0.116,0.1213,0.1279,0.1331,0.1319,0.1408,0.14,0.1388,0.1321,0.1389,0.1391,0.1367,0,0,0,0,0,0,0.0556,0.0593,0.0611,0.0643,0.0671,0.0735,0.0786,0.0858,0.0875,0.1001,0.1038,0.1148,0.1215,0.1274,0.1297,0.1314,0.125,0.1461,0.1458,0.1388,0.139,0.1392,0.1367,0,0,0,0,0]},{"header":{"parameterUnit":"m.s-1","parameterCategory":2,"la1":30.2991,"la2":30.254,"lo1":-89.0895,"lo2":-89.0444,"dy":0.0017,"dx":0.0017,"nx":28,"ny":28,"refTime":"2025-06-20T21:00:00:Z","depth":"4","parameterNumber":3,"parameterNumberName":"V-component_of_CURRENTS"},"data":[0,0,0,0,0,0,0,0,0,0,0,0,0,0,0,0,0,0,0,0,0,0,0,0,0,0,0,0,0,0,0,0,0,0,0,0,0,0,0,0,0,0,0,0,0,0,0,0,0,0,0,0,0,0,0,0,0,0,-0.0199,-0.0199,0,-0.022,-0.022,-0.022,-0.0247,-0.0248,-0.0248,-0.0249,-0.0308,-0.0309,-0.031,0,0,0,0,0,0,0,0,0,0,0,0,0,-0.0194,-0.0194,-0.0199,-0.0199,-0.02,-0.022,-0.022,-0.022,-0.0247,-0.0248,-0.0248,-0.0249,-0.0308,-0.0309,-0.0311,0,0,0,0,0,0,0,0,0,0,0,0,0,-0.0202,-0.0194,-0.0199,-0.0216,-0.0218,-0.022,-0.022,-0.022,-0.0247,-0.0248,-0.0248,-0.0249,-0.0308,-0.0309,-0.0311,-0.0305,0,0,-0.0316,-0.0316,0,0,0,0,0,0,0,0,-0.0202,-0.0202,-0.0213,-0.0215,-0.0217,-0.0233,-0.024,-0.0251,-0.0247,-0.0235,-0.0249,-0.025,-0.0287,-0.029,-0.029,-0.0307,-0.031,-0.0316,-0.0317,-0.0318,-0.0318,0,0,0,0,0,0,0,-0.0201,-0.0202,-0.0206,-0.0214,-0.0216,-0.0227,-0.0229,-0.0242,-0.0256,-0.0236,-0.0238,-0.0242,-0.0288,-0.0288,-0.0292,-0.0311,-0.0316,-0.0317,-0.0318,-0.0319,-0.038,-0.038,0,0,0,0,0,0,-0.0199,-0.0201,-0.0205,-0.0207,-0.0213,-0.0227,-0.0229,-0.0226,-0.0255,-0.026,-0.0241,-0.0243,-0.0285,-0.029,-0.0294,-0.0331,-0.0318,-0.0319,-0.032,-0.0379,-0.038,-0.0381,0,0,0,0,0,0,-0.0199,-0.0199,-0.0205,-0.0206,-0.0207,-0.0226,-0.0222,-0.0226,-0.0242,-0.0259,-0.0265,-0.0256,-0.0286,-0.0292,-0.033,-0.0332,-0.032,-0.0321,-0.0378,-0.0379,-0.038,-0.0378,0,0,0,0,0,0,-0.0199,-0.0199,-0.02,-0.0205,-0.0207,-0.0213,-0.0222,-0.0226,-0.0243,-0.0246,-0.0273,-0.0278,-0.0287,-0.0327,-0.0331,-0.0334,-0.0323,-0.0378,-0.0379,-0.038,-0.0377,-0.0379,-0.038,0,0,0,0,0,-0.0198,-0.0193,-0.0199,-0.02,-0.0206,-0.0213,-0.0215,-0.0231,-0.0243,-0.0249,-0.0278,-0.0278,-0.0337,-0.0329,-0.0334,-0.0337,-0.0377,-0.0378,-0.038,-0.0377,-0.0378,-0.038,0,0,0,0,0,0,-0.0189,-0.0195,-0.0203,-0.0199,-0.0211,-0.0219,-0.0224,-0.0237,-0.0262,-0.0269,-0.0291,-0.0299,-0.0329,-0.0338,-0.0329,-0.0359,-0.0355,-0.0357,-0.0351,-0.0353,-0.0354,-0.0366,-0.0324,0,0,0,0,0,-0.0187,-0.0186,-0.0197,-0.0195,-0.02,-0.0215,-0.0222,-0.0232,-0.0253,-0.0265,-0.029,-0.0314,-0.0334,-0.0349,-0.0365,-0.0386,-0.0401,-0.0391,-0.0392,-0.0393,-0.0407,-0.0441,-0.0446,-0.0385,-0.0385,-0.0385,0,0,-0.0184,-0.0187,-0.0187,-0.0194,-0.0203,-0.0207,-0.0221,-0.0231,-0.0243,-0.0267,-0.03,-0.0321,-0.0341,-0.0364,-0.0377,-0.0376,-0.0414,-0.0395,-0.0396,-0.0409,-0.0443,-0.0449,-0.0454,-0.0386,-0.0386,-0.0386,0,0,-0.0172,-0.0179,-0.0175,-0.0185,-0.0198,-0.0206,-0.0213,-0.0232,-0.025,-0.0282,-0.03,-0.034,-0.0365,-0.0388,-0.0399,-0.0422,-0.0419,-0.0412,-0.0431,-0.0463,-0.0468,-0.0473,-0.048,-0.0485,-0.0414,-0.0414,-0.0414,0,-0.0171,-0.0165,-0.0176,-0.0177,-0.0188,-0.0207,-0.0212,-0.0226,-0.026,-0.0278,-0.0295,-0.0355,-0.0381,-0.0411,-0.0424,-0.0426,-0.0431,-0.0419,-0.0465,-0.047,-0.0475,-0.0481,-0.0487,-0.0414,-0.0414,-0.0414,-0.0414,0,-0.016,-0.0158,-0.0157,-0.0166,-0.0178,-0.0185,-0.0207,-0.0223,-0.0253,-0.0277,-0.0324,-0.0369,-0.0407,-0.0416,-0.0432,-0.0472,-0.0457,-0.046,-0.0459,-0.0481,-0.0485,-0.0492,-0.0415,-0.0415,-0.0415,-0.0414,0,0,-0.0157,-0.0151,-0.0154,-0.0145,-0.0176,-0.0173,-0.02,-0.0224,-0.0232,-0.0289,-0.0317,-0.0382,-0.0413,-0.0431,-0.0452,-0.0493,-0.0537,-0.0494,-0.0495,-0.0497,-0.0585,-0.0554,-0.0557,-0.0539,-0.0541,-0.0542,-0.0565,0,-0.0151,-0.0134,-0.0148,-0.0139,-0.0131,-0.016,-0.0179,-0.0205,-0.0238,-0.0267,-0.0333,-0.0367,-0.0412,-0.0428,-0.0482,-0.0516,-0.0557,-0.0529,-0.0567,-0.0568,-0.0535,-0.0566,-0.0547,-0.057,-0.0572,-0.0573,-0.0574,0,-0.0145,-0.013,-0.0119,-0.0107,-0.011,-0.0114,-0.0135,-0.0156,-0.0206,-0.0235,-0.0295,-0.0335,-0.041,-0.0442,-0.0541,-0.0514,-0.056,-0.0594,-0.0595,-0.0577,-0.055,-0.0549,-0.0586,-0.0585,-0.0584,-0.0583,-0.0582,0,-0.012,-0.011,-0.0094,-0.0096,-0.0093,-0.0097,-0.0108,-0.0149,-0.0156,-0.0215,-0.0221,-0.0319,-0.0352,-0.0442,-0.0531,-0.0532,-0.0625,-0.0628,-0.0645,-0.0641,-0.0661,-0.0656,-0.0709,-0.0709,-0.0709,-0.0709,-0.0709,0,-0.0104,-0.0085,-0.0073,-0.0057,-0.0036,-0.0063,-0.0056,-0.0078,-0.0113,-0.011,-0.0202,-0.0214,-0.0356,-0.0423,-0.0515,-0.0596,-0.0615,-0.066,-0.0656,-0.0656,-0.065,-0.0664,-0.0659,-0.071,-0.071,-0.071,-0.0709,0,-0.0067,-0.0067,-0.0032,-0.0021,-0.0017,-0.0003,-0.0002,0.0006,-0.0035,-0.0032,-0.0047,-0.0135,-0.0229,-0.0356,-0.0489,-0.0553,-0.0645,-0.0669,-0.0645,-0.0637,-0.0641,-0.0635,-0.0689,-0.0688,-0.0688,-0.0687,-0.0687,0,-0.004,-0.0023,0.0008,0.0029,0.0038,0.0055,0.0066,0.0042,0.0053,0.0026,0.0036,-0.0052,-0.0123,-0.0273,-0.0429,-0.0597,-0.0624,-0.0659,-0.0685,-0.0653,-0.0645,-0.0639,-0.0634,-0.0686,-0.0686,-0.0686,-0.0685,0,0.0008,0.0011,0.004,0.008,0.0106,0.0142,0.0159,0.0183,0.0159,0.0139,0.0123,0.0026,-0.0076,-0.024,-0.0374,-0.0498,-0.0634,-0.0654,-0.0656,-0.0681,-0.065,-0.0641,-0.0637,-0.0684,-0.0684,-0.0684,-0.0684,0,0.0038,0.0062,0.0086,0.0125,0.0163,0.0205,0.0218,0.0236,0.0242,0.0216,0.0215,0.0084,-0.0002,-0.0187,-0.031,-0.0435,-0.0472,-0.05,-0.0511,-0.0515,-0.0471,-0.0407,-0.0372,0,0,0,0,0,0.006,0.008,0.0125,0.0167,0.021,0.0227,0.0267,0.0272,0.0272,0.0282,0.0249,0.0155,-0.0031,-0.0123,-0.0241,-0.0322,-0.051,-0.0464,-0.0552,-0.0673,-0.0675,-0.0653,0,0,0,0,0,0,0.0066,0.0104,0.0127,0.0192,0.0225,0.0269,0.0296,0.0301,0.0304,0.029,0.0191,0.0139,-0.0053,0.0036,-0.024,-0.0282,-0.0348,-0.0561,-0.0563,-0.0672,-0.0674,-0.0675,-0.0653,0,0,0,0,0]}]]